KL1V-13 Weather Reports


time (UTC)temp
C
wind
direction
speed
KPH
gust
KPH
rain 1hr
cm
rain 24hr
cm
rain mn
cm
humidity
%
barometer
mb
20260507090716 2 0.0 0.0 0.00 0.05 0.00 87 1018.9
20260507085717 3 0.0 0.0 0.00 0.05 0.00 87 1018.8
20260507084737 3 315 1.6 1.6 0.00 0.05 0.00 87 1018.7
20260507083716 3 315 3.2 4.8 0.00 0.05 0.00 87 1018.7
20260507082716 3 0.0 0.0 0.00 0.05 0.00 87 1018.6
20260507081717 3 0.0 0.0 0.00 0.05 0.00 87 1018.7
20260507080717 3 0.0 0.0 0.00 0.05 0.00 87 1018.4
20260507075716 3 0.0 0.0 0.00 0.05 0.05 86 1018.4
20260507074717 3 315 0.0 1.6 0.00 0.05 0.05 86 1018.4
20260507073757 3 315 1.6 3.2 0.00 0.05 0.05 86 1018.4
20260507072716 3 0.0 0.0 0.00 0.05 0.05 86 1018.4
20260507071717 3 0.0 0.0 0.00 0.05 0.05 85 1018.0
20260507070716 3 0.0 0.0 0.00 0.05 0.05 84 1018.0
20260507065736 4 0.0 0.0 0.00 0.05 0.05 84 1018.0
20260507064758 4 0.0 0.0 0.00 0.05 0.05 82 1018.0
20260507063718 5 0.0 0.0 0.00 0.05 0.05 80 1018.0
20260507062716 5 0.0 0.0 0.00 0.05 0.05 79 1017.9
20260507061717 5 315 3.2 6.4 0.00 0.05 0.05 79 1017.7
20260507060717 5 0.0 0.0 0.00 0.05 0.05 79 1017.8
20260507055716 5 337 1.6 1.6 0.00 0.05 0.05 80 1017.7
20260507054736 5 0.0 0.0 0.00 0.05 0.05 81 1017.7
20260507053717 5 0.0 0.0 0.00 0.05 0.05 80 1017.7
20260507052716 5 0.0 0.0 0.00 0.05 0.05 77 1017.6
20260507051717 6 0.0 0.0 0.00 0.05 0.05 77 1017.4
20260507050717 6 0.0 0.0 0.00 0.05 0.05 77 1017.4
20260507045716 6 324 4.8 6.4 0.00 0.05 0.05 77 1017.4
20260507044716 6 315 3.2 4.8 0.00 0.05 0.05 77 1017.4
20260507043737 6 330 1.6 3.2 0.00 0.05 0.05 77 1017.4
20260507042736 6 0.0 0.0 0.00 0.05 0.05 77 1017.0
20260507041718 6 315 0.0 3.2 0.00 0.05 0.05 75 1017.0
20260507040738 6 0.0 0.0 0.00 0.05 0.05 76 1017.0
20260507035716 6 315 1.6 3.2 0.00 0.05 0.05 75 1017.0
20260507034718 6 330 0.0 4.8 0.00 0.05 0.05 74 1017.0
20260507033716 6 339 3.2 3.2 0.00 0.05 0.05 74 1017.0
20260507032717 7 313 4.8 6.4 0.00 0.05 0.05 72 1016.8
20260507031716 7 343 3.2 6.4 0.00 0.05 0.05 71 1016.7
20260507030718 7 0.0 0.0 0.00 0.05 0.05 71 1016.7
20260507025716 7 60 0.0 1.6 0.00 0.05 0.05 69 1016.7
20260507024717 8 0.0 0.0 0.00 0.05 0.05 69 1016.6
20260507023716 8 0.0 0.0 0.00 0.05 0.05 69 1016.3
20260507022716 8 337 1.6 3.2 0.00 0.05 0.05 68 1016.3
20260507021716 8 79 1.6 3.2 0.00 0.05 0.05 67 1016.3
20260507020716 8 315 0.0 1.6 0.00 0.05 0.05 68 1016.3
20260507015737 8 0.0 0.0 0.00 0.05 0.05 67 1016.3
20260507014716 8 190 3.2 6.4 0.00 0.05 0.05 67 1016.3
20260507013717 8 125 4.8 6.4 0.00 0.05 0.05 67 1016.3
20260507012716 8 287 1.6 8.0 0.00 0.05 0.05 66 1016.3
20260507011717 8 98 3.2 3.2 0.00 0.05 0.05 66 1016.0
20260507010716 8 288 4.8 9.7 0.00 0.05 0.05 66 1016.1
20260507005738 8 0.0 4.8 0.00 0.05 0.05 66 1016.0
20260507004716 8 45 0.0 3.2 0.00 0.05 0.05 65 1016.0
20260507003716 8 0.0 0.0 0.00 0.05 0.05 66 1016.0
20260507002736 8 112 1.6 3.2 0.00 0.05 0.05 66 1016.0
20260507001737 8 112 0.0 3.2 0.00 0.05 0.05 67 1016.0
20260507000716 8 125 0.0 8.0 0.00 0.05 0.05 67 1016.0
20260506235716 8 195 4.8 6.4 0.00 0.05 0.05 66 1016.0
20260506234736 9 49 0.0 1.6 0.00 0.05 0.05 66 1015.7
20260506233738 9 118 3.2 6.4 0.00 0.05 0.05 66 1015.6
20260506232716 9 135 3.2 6.4 0.00 0.05 0.05 67 1015.6
20260506231817 9 302 3.2 8.0 0.00 0.05 0.05 67 1015.4
20260506230717 8 112 1.6 6.4 0.00 0.05 0.05 67 1015.4
20260506225717 8 155 3.2 6.4 0.00 0.05 0.05 68 1015.3
20260506224716 9 173 3.2 9.7 0.00 0.05 0.05 68 1015.3
20260506223716 8 79 0.0 1.6 0.00 0.05 0.05 68 1015.3
20260506222717 8 164 6.4 9.7 0.00 0.05 0.05 69 1015.3
20260506221736 8 143 6.4 9.7 0.00 0.05 0.05 68 1015.3
20260506220718 8 116 6.4 8.0 0.00 0.05 0.05 69 1015.3
20260506215716 8 127 4.8 8.0 0.00 0.05 0.05 69 1015.3
20260506214738 8 184 4.8 6.4 0.00 0.05 0.05 70 1015.3
20260506213716 8 356 3.2 4.8 0.00 0.05 0.05 71 1015.0
20260506212717 8 164 4.8 6.4 0.00 0.05 0.05 72 1015.0
20260506211716 8 250 1.6 4.8 0.00 0.05 0.05 72 1015.0
20260506210716 8 0.0 0.0 0.00 0.05 0.05 73 1015.0
20260506205716 8 144 1.6 4.8 0.00 0.05 0.05 75 1014.7
20260506204717 7 352 0.0 3.2 0.00 0.05 0.05 76 1014.9
20260506203716 8 112 1.6 4.8 0.00 0.05 0.05 76 1014.6
20260506202716 7 108 1.6 4.8 0.00 0.05 0.05 76 1014.6
20260506201716 7 113 1.6 3.2 0.00 0.05 0.05 77 1014.6
20260506200738 7 112 3.2 6.4 0.00 0.05 0.05 79 1014.6
20260506195716 7 87 1.6 3.2 0.00 0.05 0.05 79 1014.6
20260506194716 6 168 1.6 4.8 0.00 0.05 0.05 81 1014.3
20260506193756 7 114 3.2 3.2 0.00 0.05 0.05 83 1014.3
20260506192717 6 0.0 0.0 0.00 0.05 0.05 85 1014.3
20260506191716 6 112 0.0 3.2 0.00 0.08 0.05 86 1014.3
20260506190717 6 112 4.8 4.8 0.00 0.08 0.05 86 1014.0
20260506185717 6 112 0.0 3.2 0.00 0.08 0.05 87 1014.0
20260506184716 5 112 0.0 1.6 0.00 0.08 0.05 88 1014.0
20260506183716 5 345 1.6 4.8 0.00 0.08 0.05 88 1014.0
20260506182716 5 112 3.2 6.4 0.00 0.08 0.05 88 1014.0
20260506181716 5 112 0.0 1.6 0.00 0.08 0.05 89 1013.6
20260506180757 5 0.0 0.0 0.00 0.08 0.05 89 1013.6
20260506175716 5 153 1.6 3.2 0.00 0.08 0.05 89 1013.6
20260506174716 5 0.0 0.0 0.03 0.10 0.05 89 1013.6
20260506173716 5 0.0 0.0 0.03 0.10 0.05 89 1013.6
20260506172716 5 0.0 0.0 0.05 0.10 0.05 89 1013.6
20260506171716 4 0.0 0.0 0.05 0.10 0.05 90 1013.6
20260506170717 4 0.0 0.0 0.05 0.10 0.05 90 1013.3
20260506165837 4 0.0 0.0 0.05 0.10 0.05 91 1013.3
20260506164716 4 0.0 0.0 0.03 0.08 0.03 91 1013.3
20260506163716 3 0.0 1.6 0.03 0.08 0.03 92 1013.3
20260506162717 3 0.0 0.0 0.00 0.05 0.00 92 1012.9
20260506161717 3 0.0 0.0 0.00 0.05 0.00 92 1012.9
20260506160736 3 0.0 0.0 0.00 0.05 0.00 92 1012.9
20260506155716 3 0.0 0.0 0.00 0.05 0.00 92 1012.9
20260506154716 2 0.0 0.0 0.00 0.05 0.00 92 1012.6
20260506153716 2 0.0 0.0 0.00 0.05 0.00 92 1012.6
20260506152716 2 0.0 0.0 0.00 0.05 0.00 92 1012.6
20260506151716 2 0.0 0.0 0.00 0.05 0.00 92 1012.6
20260506150716 1 0.0 0.0 0.00 0.05 0.00 92 1012.6
20260506145736 1 0.0 0.0 0.00 0.05 0.00 92 1012.3
20260506144718 1 0.0 0.0 0.00 0.05 0.00 92 1012.3
20260506143716 1 0.0 0.0 0.00 0.05 0.00 92 1012.3
20260506142716 1 0.0 0.0 0.00 0.05 0.00 92 1012.3
20260506141716 1 0.0 0.0 0.00 0.05 0.00 92 1012.3
20260506140716 1 0.0 0.0 0.00 0.05 0.00 92 1012.3
20260506135737 1 0.0 0.0 0.00 0.05 0.00 92 1012.3
20260506134717 1 0.0 0.0 0.00 0.05 0.00 92 1012.3
20260506133717 1 0.0 0.0 0.00 0.05 0.00 92 1012.3
20260506132717 1 0.0 0.0 0.00 0.05 0.00 91 1012.3
20260506131716 1 0.0 0.0 0.00 0.05 0.00 91 1011.9
20260506130716 1 0.0 0.0 0.00 0.05 0.00 91 1012.3
20260506125738 1 0.0 0.0 0.00 0.05 0.00 91 1012.3
20260506124716 1 0.0 0.0 0.00 0.05 0.00 91 1011.9
20260506123716 1 0.0 0.0 0.00 0.05 0.00 91 1012.3
20260506122716 1 0.0 0.0 0.00 0.05 0.00 91 1011.9
20260506121717 1 0.0 0.0 0.00 0.05 0.00 91 1011.9
20260506120717 1 0.0 0.0 0.00 0.08 0.00 91 1011.9
20260506115736 1 0.0 0.0 0.00 0.08 0.00 91 1011.9
20260506114717 1 0.0 0.0 0.00 0.10 0.00 90 1011.9
20260506113756 1 0.0 0.0 0.00 0.10 0.00 90 1011.9
20260506112757 1 0.0 0.0 0.00 0.10 0.00 90 1011.9
20260506111716 1 0.0 0.0 0.00 0.10 0.00 90 1011.9
20260506110717 1 0.0 0.0 0.00 0.10 0.00 90 1011.9
20260506105716 1 0.0 0.0 0.00 0.10 0.00 90 1011.9
20260506104717 1 0.0 0.0 0.00 0.10 0.00 90 1011.9
20260506103716 1 337 1.6 1.6 0.00 0.10 0.00 90 1011.9
20260506102716 1 0.0 0.0 0.00 0.10 0.00 90 1011.9
20260506101717 1 0.0 0.0 0.00 0.10 0.00 90 1011.9
20260506100717 1 0.0 0.0 0.00 0.10 0.00 90 1011.6
20260506095716 1 0.0 0.0 0.00 0.10 0.00 89 1011.6
20260506094716 1 0.0 0.0 0.00 0.10 0.00 89 1011.6
20260506093716 1 0.0 0.0 0.00 0.13 0.00 89 1011.6
20260506092716 1 0.0 0.0 0.00 0.13 0.00 89 1011.9
20260506091717 1 0.0 0.0 0.00 0.15 0.00 89 1011.6